SCP
0 0 0 0 0 0 -0 -0 -0 -0 -0 -0 -0 -0 -0 -0 -0 -0 -0 0 0 0 0 0 0 0 0 0 0 0 0 0 0 0 0 0 -0 -0 0 0 0 0 -0
0 0 0 0 -0 -0 -0 -0 -0 -0 -0 -0 -0 -0 -0 -0 0 0 0 0 0 0 0 0 0 0 0 0 0 0 0 0 0 0 0 0 -0 -0 0 0 0 0 0
0 0 0 0 0 0 -0 -0 -0 -0 -0 -0 -0 -0 -0 0 0 0 0 0 0 0 0 0 0 0 0 0 0 0 0 0 0 0 0 0 0 0 0 0 0 0 0
0 0 0 0 0 0 0 0 0 0 0 0 0 0 0 0 0 0 0 0 0 0 0 0 0 0 0 0 0 0 0 0 0 0 0 0 0 0 0 0 0 0 0
0 0 0 0 0 0 0 0 0 0 0 0 0 0 0 0 0 0 0 0 0 0 0 0 0 0 0 0 0 0 0 0 0 0 0 0 0 0 0 0 0 0 0
0 0 0 0 0 0 0 0 0 0 0 0 0 0 0 0 0 0 0 0 0 0 0 0 0 0 0 0 0 0 0 0 0 0 0 0 0 0 0 0 0 0 0
0 0 0 0 0 0 0 0 0 0 0 0 0 0 0 0 0 0 0 0 0 0 0 0 0 0 0 0 0 0 0 0 0 0 0 0 0 0 0 0 0 0 0
0 0 0 0 0 0 0 0 0 0 0 0 0 0 0 0 0 0 0 0 0 0 0 0 0 0 0 0 0 0 0 0 0 0 0 0 0 0 0 0 0 0 0
0 0 0 0 0 0 0 0 0 0 0 0 0 0 0 0 0 0 0 0 0 0 0 0 0 0 0 0 0 0 0 0 0 0 0 0 0 0 0 0 0 0 0
0 0 0 0 0 0 0 0 0 0 0 0 0 0 0 0 0 0 0 0 0 0 0 0 0 0 0 0 0 0 0 0 0 0 0 0 0 0 0 0 0 0 0
0 0 0 0 0 0 0 0 0 0 0 0 0 0 0 0 0 0 0 0 0 0 0 0 0 0 0 0 0 0 0 0 0 0 0 0 0 0 0 0 0 0 0
0 0 0 0 0 0 0 0 0 0 0 0 0 0 0 0 0 0 0 0 0 0 0 0 0 0 0 0 0 0 0 0 0 0 0 0 0 0 0 0 0 0 0
0 0 0 0 0 0 0 0 0 0 0 0 0 0 0 0 0 0 0 0 0 0 0 0 0 0 0 0 0 0 0 0 0 0 0 0 0 0 0 0 0 0 0
0 0 0 0 0 0 0 0 0 0 0 0 0 0 0 0 0 0 0 0 0 0 0 0 0 0 0 0 0 0 0 0 0 0 0 0 0 0 0 0 0 0 0
0 0 0 0 0 0 0 0 0 0 0 0 0 0 0 0 0 0 0 0 0 0 0 0 0 0 0 0 0 0 0 0 0 0 0 0 0 0 0 0 0 0 0
0 0 0 0 0 0 0 0 0 0 0 0 0 0 0 0 0 0 0 0 0 0 0 0 0 0 0 0 0 0 0 0 0 0 0 0 0 0 0 0 1 1 0
0 0 0 0 0 0 0 0 0 0 0 0 0 0 0 0 0 0 0 0 0 0 0 0 0 0 0 0 0 0 0 0 0 0 0 0 0 0 0 0 0 1 1
0 0 0 0 0 0 0 0 0 0 0 0 0 0 0 0 0 0 0 0 0 0 0 0 0 0 0 0 0 0 0 0 0 0 0 0 0 0 0 0 0 1 1
0 0 0 0 0 0 0 0 0 0 0 0 0 0 0 0 0 0 0 0 0 0 0 0 0 0 0 0 0 0 0 0 0 0 0 0 0 0 0 0 0 0 0
0 0 0 0 0 0 0 0 0 0 0 0 0 0 0 0 0 0 0 0 0 0 0 0 0 0 0 0 0 0 0 0 0 0 0 0 0 0 0 0 0 0 0
0 0 0 0 0 0 0 0 0 0 0 0 0 0 0 0 0 0 0 0 0 0 0 0 0 0 0 0 0 0 0 0 0 0 0 0 0 0 0 0 0 0 0
0 0 0 0 0 0 0 0 0 0 0 0 0 0 0 0 0 0 0 0 0 0 0 0 0 0 0 0 0 0 0 0 0 0 0 0 0 0 0 0 0 0 0
0 0 0 0 0 0 0 0 0 0 0 0 0 0 0 0 0 0 0 0 0 0 0 0 0 0 0 0 0 0 0 0 0 0 0 0 0 0 0 0 0 0 0
0 0 0 0 0 0 0 0 0 0 0 0 0 0 0 0 0 0 0 0 0 0 0 0 0 0 0 0 0 0 0 0 0 -0 0 0 0 0 0 0 0 0 0
0 0 0 0 0 0 0 0 0 0 0 0 0 0 0 0 0 0 0 0 0 0 0 0 0 0 0 0 0 0 0 0 0 0 0 -0 0 0 0 0 0 0 0
0 0 0 0 0 0 0 0 0 0 0 0 0 0 0 0 0 0 0 0 0 0 0 0 0 0 0 0 0 0 0 0 0 0 0 0 0 0 0 0 0 0 0
Wind_Speed_500mb
18 17 18 18 18 16 15 14 14 14 10 11 12 11 9 8 9 7 7 7 7 6 5 4 3 5 8 10 12 15 17 15 12 14 15 22 28 23 5 17 28 23 16
21 20 20 20 14 12 12 12 11 10 8 6 4 3 6 6 5 5 6 8 8 8 8 8 8 10 11 12 14 16 16 15 15 14 17 22 21 18 1 24 29 22 21
24 23 22 21 19 15 11 10 11 8 6 4 5 5 8 8 10 12 11 12 13 13 14 13 13 14 14 15 16 18 17 18 17 17 18 19 15 13 6 25 29 21 24
27 26 24 22 20 18 15 12 10 7 5 5 7 8 10 13 14 16 16 17 17 18 19 18 16 18 19 18 19 21 21 22 22 22 18 12 14 9 11 25 31 20 27
30 27 23 20 17 14 11 8 5 2 0 3 6 10 11 13 16 17 20 21 21 21 22 23 22 23 23 24 23 24 25 25 24 27 20 12 18 9 15 21 33 23 27
27 21 18 14 11 9 7 4 2 2 4 6 8 9 11 13 15 17 20 24 24 26 25 26 29 27 26 28 28 28 27 29 30 30 24 17 21 16 24 17 32 31 30
26 19 13 8 5 2 2 1 3 4 6 8 11 14 16 18 18 20 22 23 25 28 28 31 31 32 32 32 34 33 33 33 34 33 29 21 27 24 28 30 32 35 33
21 17 11 6 2 1 3 5 7 9 9 10 11 13 16 18 21 24 25 27 29 29 30 32 35 35 35 38 38 37 39 39 37 34 31 26 30 26 35 36 40 40 39
21 16 10 3 3 6 9 11 13 13 13 13 14 16 18 20 21 24 26 30 33 34 34 35 36 40 42 42 42 44 44 44 42 40 36 32 33 32 41 40 43 46 45
21 14 9 5 4 8 6 10 12 14 15 17 18 20 22 24 26 27 28 30 32 35 38 41 42 42 46 49 49 48 49 50 51 48 45 40 38 41 42 43 42 55 53
22 15 13 11 9 11 7 10 12 14 16 19 22 25 27 29 29 28 30 33 35 37 39 42 44 47 50 52 55 56 55 56 56 56 54 49 43 47 45 41 41 55 63
26 22 19 13 10 10 11 14 15 15 17 20 24 28 31 32 32 34 35 35 36 38 39 44 46 48 50 55 57 58 61 62 62 63 61 55 53 53 53 47 42 48 68
20 22 15 14 14 12 15 16 16 16 17 22 28 31 32 31 30 30 32 36 40 42 42 43 47 49 51 53 56 60 60 60 69 68 70 63 60 60 60 57 49 45 70
28 25 23 23 20 16 18 18 18 19 23 27 32 37 39 38 36 35 35 35 36 41 46 49 50 50 53 55 58 60 61 62 55 65 74 71 66 65 67 65 62 53 62
32 32 33 29 25 20 19 19 20 23 27 31 36 40 42 41 41 41 40 41 42 44 46 49 52 57 57 56 59 63 65 65 68 67 59 74 75 69 71 72 69 62 59
30 37 37 33 28 24 21 22 24 27 31 36 40 44 44 43 43 44 44 45 46 47 48 51 54 56 61 62 62 63 66 69 68 77 74 58 75 77 73 75 75 73 68
35 36 36 33 31 26 25 25 27 32 36 39 43 47 45 45 46 49 51 52 52 52 54 55 55 56 60 63 68 66 66 70 75 72 83 87 69 81 83 78 80 80 75
28 35 35 36 32 29 27 28 32 36 40 43 47 51 49 48 50 52 54 54 56 59 60 60 61 62 61 61 66 69 70 69 72 76 74 85 102 75 85 85 83 86 85
29 34 41 40 34 30 29 32 36 41 44 47 51 55 53 52 53 56 55 56 61 65 64 62 60 62 63 63 65 69 72 74 73 75 79 78 87 102 93 82 91 87 89
32 37 41 40 31 30 32 37 42 45 45 48 51 54 52 53 55 55 57 63 66 68 66 60 61 64 66 65 65 70 72 76 78 79 79 81 82 89 103 113 84 96 98
32 35 31 29 29 32 37 43 47 50 50 51 53 53 53 57 57 61 68 73 73 70 70 69 64 59 59 49 60 72 77 76 77 78 78 83 84 81 89 100 115 97 94
21 20 22 26 30 37 44 47 52 54 56 57 57 55 57 58 61 66 71 74 73 70 67 63 55 52 50 41 42 45 41 49 46 45 46 56 71 81 85 91 100 94 107
10 16 24 30 37 44 47 52 55 55 57 57 55 58 58 60 65 71 72 71 68 62 62 51 47 48 54 47 43 32 22 15 42 29 29 31 37 50 62 73 90 87 105
8 18 27 35 42 47 52 55 54 55 58 57 60 62 64 67 71 70 68 65 62 53 52 50 44 41 44 49 43 41 51 67 40 45 41 44 28 30 41 57 59 71 88
19 26 34 41 48 51 51 49 48 51 53 58 59 64 69 70 69 65 61 58 52 49 48 47 45 45 45 51 52 50 55 54 63 64 75 59 72 55 42 38 44 59 70
27 30 33 37 39 41 41 41 44 49 54 58 61 68 71 71 61 51 47 42 38 38 40 43 46 45 45 47 50 54 55 52 45 48 56 58 57 72 67 65 57 41 61
Wind_Direction_500mb
169 156 146 158 166 152 147 139 143 148 153 144 140 135 148 160 158 163 170 167 173 180 195 225 250 255 231 230 225 228 233 248 265 295 312 329 340 350 15 154 163 153 144
170 156 139 139 144 152 147 152 145 148 155 164 186 210 205 198 216 225 236 231 225 223 229 231 244 259 264 249 239 232 240 247 267 278 307 325 339 6 225 169 171 165 160
171 150 143 130 132 124 135 148 139 160 180 214 225 234 252 259 259 260 254 253 252 253 248 249 252 255 252 263 256 245 244 257 269 273 302 321 329 11 345 184 181 176 180
156 144 137 131 128 129 125 116 109 121 160 222 245 265 266 261 264 267 267 263 265 262 255 254 256 260 260 259 257 254 256 262 264 272 290 300 303 344 335 208 195 189 189
154 146 138 134 134 134 128 118 114 116 27 263 274 280 283 281 274 273 271 271 269 265 261 253 255 250 252 255 254 252 256 262 265 274 279 263 261 278 278 226 212 205 198
155 147 140 134 126 122 116 127 158 225 277 289 290 282 279 281 285 285 281 275 272 266 263 261 263 251 252 254 250 251 254 257 267 270 271 262 235 251 249 236 225 222 213
157 153 152 143 128 99 45 327 286 282 285 290 294 296 297 291 285 280 281 282 279 273 266 259 260 266 261 254 253 252 253 255 266 267 264 258 231 233 245 226 222 228 221
170 169 167 165 153 327 321 332 337 332 329 323 315 308 303 299 296 290 284 278 276 278 275 266 259 261 262 262 258 252 253 256 260 261 263 256 237 236 245 234 221 224 226
185 184 187 214 306 318 330 339 343 342 336 331 329 326 321 313 307 300 294 287 282 279 273 271 266 260 258 258 259 257 254 256 257 257 261 255 244 238 253 245 229 222 226
196 199 210 231 265 284 300 303 314 322 327 329 331 328 326 320 313 307 300 292 285 281 277 272 268 264 260 259 260 259 257 255 256 257 254 254 242 241 249 253 236 224 223
212 223 237 244 249 270 291 296 303 304 314 325 331 333 331 326 317 309 301 296 290 285 279 276 272 266 261 259 258 258 259 258 256 257 256 254 246 242 247 250 250 227 222
223 235 240 236 247 272 293 301 304 307 312 319 326 329 330 327 323 319 311 303 296 290 284 278 273 271 267 261 256 256 256 257 257 258 256 254 252 247 248 250 253 239 220
242 242 250 251 260 274 292 299 300 303 310 322 325 327 328 327 322 319 317 311 304 296 291 283 275 271 268 265 261 254 253 256 255 258 257 254 250 251 250 250 253 248 225
226 260 269 270 264 276 289 296 302 308 315 321 326 329 332 332 330 327 324 321 314 303 295 291 285 277 269 265 264 260 254 249 254 259 258 257 251 248 251 250 249 247 235
228 249 262 264 270 275 287 296 300 303 312 319 325 331 331 330 328 326 324 323 322 315 306 296 288 285 279 270 265 263 260 253 244 246 258 261 257 250 246 249 247 247 243
232 249 264 275 277 280 291 294 296 304 314 320 327 330 329 326 323 322 321 320 318 315 310 302 296 289 284 280 272 264 261 259 253 243 242 254 256 256 249 245 246 245 244
241 258 268 278 281 275 283 288 294 304 312 318 323 328 327 324 322 322 321 320 318 314 311 305 297 289 285 282 279 273 265 259 257 251 243 242 253 250 252 248 244 244 244
235 256 267 275 279 270 278 284 294 304 310 315 320 325 325 322 321 318 317 316 314 313 311 307 300 293 286 282 279 276 272 266 258 257 251 245 242 254 249 249 247 244 243
249 256 263 269 270 269 276 285 295 303 309 315 319 323 322 319 317 315 314 312 311 308 305 303 297 292 290 285 280 276 273 270 265 259 255 249 245 240 250 249 249 246 244
258 265 263 268 264 269 280 289 296 301 308 311 314 316 315 314 314 310 310 310 311 307 303 299 293 289 288 285 281 278 275 272 269 264 260 256 249 244 242 248 253 249 249
256 265 263 261 269 278 287 292 296 301 304 307 310 313 313 313 312 311 312 311 309 304 300 296 292 296 295 292 282 279 279 275 275 271 268 263 257 252 247 246 244 251 251
254 257 261 271 279 283 287 293 298 302 304 308 313 314 314 313 312 309 307 304 302 299 294 291 289 280 283 289 296 300 301 293 289 276 277 272 266 262 255 249 248 250 253
259 280 282 282 282 286 292 294 296 298 301 307 309 309 311 310 308 307 305 302 299 297 294 287 288 287 282 283 275 269 293 276 308 276 247 287 268 263 261 258 252 256 250
335 306 295 289 288 290 291 293 295 300 304 308 310 311 311 309 308 306 303 299 295 292 288 286 289 286 284 283 282 268 265 262 284 296 278 259 273 274 269 266 265 256 250
337 313 298 285 282 285 287 292 296 298 302 306 309 309 310 310 309 306 299 293 288 284 280 282 284 281 275 274 275 273 268 270 262 268 282 288 275 264 265 261 264 264 255
311 316 291 279 275 278 286 292 296 299 304 305 309 310 311 310 309 306 303 295 289 284 281 280 279 277 276 273 272 272 273 270 268 270 273 277 283 273 269 265 263 263 256
Wind_Speed_850mb
18 17 18 18 18 16 15 14 14 14 10 11 12 11 9 8 9 7 7 7 7 6 5 4 3 5 8 10 12 15 17 15 12 14 15 22 28 23 5 17 28 23 16
21 20 20 20 14 12 12 12 11 10 8 6 4 3 6 6 5 5 6 8 8 8 8 8 8 10 11 12 14 16 16 15 15 14 17 22 21 18 1 24 29 22 21
24 23 22 21 19 15 11 10 11 8 6 4 5 5 8 8 10 12 11 12 13 13 14 13 13 14 14 15 16 18 17 18 17 17 18 19 15 13 6 25 29 21 24
27 26 24 22 20 18 15 12 10 7 5 5 7 8 10 13 14 16 16 17 17 18 19 18 16 18 19 18 19 21 21 22 22 22 18 12 14 9 11 25 31 20 27
30 27 23 20 17 14 11 8 5 2 0 3 6 10 11 13 16 17 20 21 21 21 22 23 22 23 23 24 23 24 25 25 24 27 20 12 18 9 15 21 33 23 27
27 21 18 14 11 9 7 4 2 2 4 6 8 9 11 13 15 17 20 24 24 26 25 26 29 27 26 28 28 28 27 29 30 30 24 17 21 16 24 17 32 31 30
26 19 13 8 5 2 2 1 3 4 6 8 11 14 16 18 18 20 22 23 25 28 28 31 31 32 32 32 34 33 33 33 34 33 29 21 27 24 28 30 32 35 33
21 17 11 6 2 1 3 5 7 9 9 10 11 13 16 18 21 24 25 27 29 29 30 32 35 35 35 38 38 37 39 39 37 34 31 26 30 26 35 36 40 40 39
21 16 10 3 3 6 9 11 13 13 13 13 14 16 18 20 21 24 26 30 33 34 34 35 36 40 42 42 42 44 44 44 42 40 36 32 33 32 41 40 43 46 45
21 14 9 5 4 8 6 10 12 14 15 17 18 20 22 24 26 27 28 30 32 35 38 41 42 42 46 49 49 48 49 50 51 48 45 40 38 41 42 43 42 55 53
22 15 13 11 9 11 7 10 12 14 16 19 22 25 27 29 29 28 30 33 35 37 39 42 44 47 50 52 55 56 55 56 56 56 54 49 43 47 45 41 41 55 63
26 22 19 13 10 10 11 14 15 15 17 20 24 28 31 32 32 34 35 35 36 38 39 44 46 48 50 55 57 58 61 62 62 63 61 55 53 53 53 47 42 48 68
20 22 15 14 14 12 15 16 16 16 17 22 28 31 32 31 30 30 32 36 40 42 42 43 47 49 51 53 56 60 60 60 69 68 70 63 60 60 60 57 49 45 70
28 25 23 23 20 16 18 18 18 19 23 27 32 37 39 38 36 35 35 35 36 41 46 49 50 50 53 55 58 60 61 62 55 65 74 71 66 65 67 65 62 53 62
32 32 33 29 25 20 19 19 20 23 27 31 36 40 42 41 41 41 40 41 42 44 46 49 52 57 57 56 59 63 65 65 68 67 59 74 75 69 71 72 69 62 59
30 37 37 33 28 24 21 22 24 27 31 36 40 44 44 43 43 44 44 45 46 47 48 51 54 56 61 62 62 63 66 69 68 77 74 58 75 77 73 75 75 73 68
35 36 36 33 31 26 25 25 27 32 36 39 43 47 45 45 46 49 51 52 52 52 54 55 55 56 60 63 68 66 66 70 75 72 83 87 69 81 83 78 80 80 75
28 35 35 36 32 29 27 28 32 36 40 43 47 51 49 48 50 52 54 54 56 59 60 60 61 62 61 61 66 69 70 69 72 76 74 85 102 75 85 85 83 86 85
29 34 41 40 34 30 29 32 36 41 44 47 51 55 53 52 53 56 55 56 61 65 64 62 60 62 63 63 65 69 72 74 73 75 79 78 87 102 93 82 91 87 89
32 37 41 40 31 30 32 37 42 45 45 48 51 54 52 53 55 55 57 63 66 68 66 60 61 64 66 65 65 70 72 76 78 79 79 81 82 89 103 113 84 96 98
32 35 31 29 29 32 37 43 47 50 50 51 53 53 53 57 57 61 68 73 73 70 70 69 64 59 59 49 60 72 77 76 77 78 78 83 84 81 89 100 115 97 94
21 20 22 26 30 37 44 47 52 54 56 57 57 55 57 58 61 66 71 74 73 70 67 63 55 52 50 41 42 45 41 49 46 45 46 56 71 81 85 91 100 94 107
10 16 24 30 37 44 47 52 55 55 57 57 55 58 58 60 65 71 72 71 68 62 62 51 47 48 54 47 43 32 22 15 42 29 29 31 37 50 62 73 90 87 105
8 18 27 35 42 47 52 55 54 55 58 57 60 62 64 67 71 70 68 65 62 53 52 50 44 41 44 49 43 41 51 67 40 45 41 44 28 30 41 57 59 71 88
19 26 34 41 48 51 51 49 48 51 53 58 59 64 69 70 69 65 61 58 52 49 48 47 45 45 45 51 52 50 55 54 63 64 75 59 72 55 42 38 44 59 70
27 30 33 37 39 41 41 41 44 49 54 58 61 68 71 71 61 51 47 42 38 38 40 43 46 45 45 47 50 54 55 52 45 48 56 58 57 72 67 65 57 41 61
Wind_Direction_850mb
169 156 146 158 166 152 147 139 143 148 153 144 140 135 148 160 158 163 170 167 173 180 195 225 250 255 231 230 225 228 233 248 265 295 312 329 340 350 15 154 163 153 144
170 156 139 139 144 152 147 152 145 148 155 164 186 210 205 198 216 225 236 231 225 223 229 231 244 259 264 249 239 232 240 247 267 278 307 325 339 6 225 169 171 165 160
171 150 143 130 132 124 135 148 139 160 180 214 225 234 252 259 259 260 254 253 252 253 248 249 252 255 252 263 256 245 244 257 269 273 302 321 329 11 345 184 181 176 180
156 144 137 131 128 129 125 116 109 121 160 222 245 265 266 261 264 267 267 263 265 262 255 254 256 260 260 259 257 254 256 262 264 272 290 300 303 344 335 208 195 189 189
154 146 138 134 134 134 128 118 114 116 27 263 274 280 283 281 274 273 271 271 269 265 261 253 255 250 252 255 254 252 256 262 265 274 279 263 261 278 278 226 212 205 198
155 147 140 134 126 122 116 127 158 225 277 289 290 282 279 281 285 285 281 275 272 266 263 261 263 251 252 254 250 251 254 257 267 270 271 262 235 251 249 236 225 222 213
157 153 152 143 128 99 45 327 286 282 285 290 294 296 297 291 285 280 281 282 279 273 266 259 260 266 261 254 253 252 253 255 266 267 264 258 231 233 245 226 222 228 221
170 169 167 165 153 327 321 332 337 332 329 323 315 308 303 299 296 290 284 278 276 278 275 266 259 261 262 262 258 252 253 256 260 261 263 256 237 236 245 234 221 224 226
185 184 187 214 306 318 330 339 343 342 336 331 329 326 321 313 307 300 294 287 282 279 273 271 266 260 258 258 259 257 254 256 257 257 261 255 244 238 253 245 229 222 226
196 199 210 231 265 284 300 303 314 322 327 329 331 328 326 320 313 307 300 292 285 281 277 272 268 264 260 259 260 259 257 255 256 257 254 254 242 241 249 253 236 224 223
212 223 237 244 249 270 291 296 303 304 314 325 331 333 331 326 317 309 301 296 290 285 279 276 272 266 261 259 258 258 259 258 256 257 256 254 246 242 247 250 250 227 222
223 235 240 236 247 272 293 301 304 307 312 319 326 329 330 327 323 319 311 303 296 290 284 278 273 271 267 261 256 256 256 257 257 258 256 254 252 247 248 250 253 239 220
242 242 250 251 260 274 292 299 300 303 310 322 325 327 328 327 322 319 317 311 304 296 291 283 275 271 268 265 261 254 253 256 255 258 257 254 250 251 250 250 253 248 225
226 260 269 270 264 276 289 296 302 308 315 321 326 329 332 332 330 327 324 321 314 303 295 291 285 277 269 265 264 260 254 249 254 259 258 257 251 248 251 250 249 247 235
228 249 262 264 270 275 287 296 300 303 312 319 325 331 331 330 328 326 324 323 322 315 306 296 288 285 279 270 265 263 260 253 244 246 258 261 257 250 246 249 247 247 243
232 249 264 275 277 280 291 294 296 304 314 320 327 330 329 326 323 322 321 320 318 315 310 302 296 289 284 280 272 264 261 259 253 243 242 254 256 256 249 245 246 245 244
241 258 268 278 281 275 283 288 294 304 312 318 323 328 327 324 322 322 321 320 318 314 311 305 297 289 285 282 279 273 265 259 257 251 243 242 253 250 252 248 244 244 244
235 256 267 275 279 270 278 284 294 304 310 315 320 325 325 322 321 318 317 316 314 313 311 307 300 293 286 282 279 276 272 266 258 257 251 245 242 254 249 249 247 244 243
249 256 263 269 270 269 276 285 295 303 309 315 319 323 322 319 317 315 314 312 311 308 305 303 297 292 290 285 280 276 273 270 265 259 255 249 245 240 250 249 249 246 244
258 265 263 268 264 269 280 289 296 301 308 311 314 316 315 314 314 310 310 310 311 307 303 299 293 289 288 285 281 278 275 272 269 264 260 256 249 244 242 248 253 249 249
256 265 263 261 269 278 287 292 296 301 304 307 310 313 313 313 312 311 312 311 309 304 300 296 292 296 295 292 282 279 279 275 275 271 268 263 257 252 247 246 244 251 251
254 257 261 271 279 283 287 293 298 302 304 308 313 314 314 313 312 309 307 304 302 299 294 291 289 280 283 289 296 300 301 293 289 276 277 272 266 262 255 249 248 250 253
259 280 282 282 282 286 292 294 296 298 301 307 309 309 311 310 308 307 305 302 299 297 294 287 288 287 282 283 275 269 293 276 308 276 247 287 268 263 261 258 252 256 250
335 306 295 289 288 290 291 293 295 300 304 308 310 311 311 309 308 306 303 299 295 292 288 286 289 286 284 283 282 268 265 262 284 296 278 259 273 274 269 266 265 256 250
337 313 298 285 282 285 287 292 296 298 302 306 309 309 310 310 309 306 299 293 288 284 280 282 284 281 275 274 275 273 268 270 262 268 282 288 275 264 265 261 264 264 255
311 316 291 279 275 278 286 292 296 299 304 305 309 310 311 310 309 306 303 295 289 284 281 280 279 277 276 273 272 272 273 270 268 270 273 277 283 273 269 265 263 263 256